QTR416 KIAD-LSZH

Flight info

Callsign QTR416
Flight time 7h 25m
Altitude 35000
Route JCOBY4 SWANN DCT BROSS Q419 RBV Q22 FOXWD DCT WITCH DCT ALLEX N431B ELSIR/M085F360 NATQ SOVED/N0487F370 DCT LUTOV DCT MAKUX DCT SOSIM L15 FINMA DCT CHT DCT ITVIP DCT KONAN UL607 KOK DCT CIV DCT SUTAL DCT GTQ DCT BAMEV DCT BLM
Aircraft A388/J-SADE2E3FGHIJ3J4J5M1RWXY/LB1D1

Departure

Time 2026-04-26 00:44
Airport Washington Dulles International Airport (KIAD)

Arrival

Time 2026-04-26 08:10
Airport Zürich Airport (LSZH)
Time Latitude Longitude Altitude Speed Heading
2026-04-26 00:14 38.94800 -77.44933 305 ft 0 kts 15°
2026-04-26 00:29 38.94791 -77.44936 306 ft 4 kts 15°
2026-04-26 00:29 38.94765 -77.44946 305 ft 4 kts 15°
2026-04-26 00:29 38.94745 -77.44953 306 ft 4 kts 24°
2026-04-26 00:30 38.94728 -77.44972 304 ft 4 kts 84°
2026-04-26 00:30 38.94728 -77.45003 303 ft 4 kts 91°
2026-04-26 00:30 38.94728 -77.45029 304 ft 0 kts 91°
2026-04-26 00:34 38.94728 -77.45018 303 ft 4 kts 90°
2026-04-26 00:35 38.94728 -77.44969 304 ft 5 kts 91°
2026-04-26 00:35 38.94727 -77.44926 302 ft 4 kts 92°
2026-04-26 00:35 38.94726 -77.44889 305 ft 5 kts 92°
2026-04-26 00:35 38.94725 -77.44841 308 ft 6 kts 91°
2026-04-26 00:36 38.94724 -77.44781 308 ft 7 kts 91°
2026-04-26 00:36 38.94724 -77.44712 307 ft 8 kts 90°
2026-04-26 00:36 38.94724 -77.44635 308 ft 9 kts 90°
2026-04-26 00:36 38.94724 -77.44553 308 ft 10 kts 90°
2026-04-26 00:37 38.94722 -77.44465 305 ft 10 kts 91°
2026-04-26 00:37 38.94721 -77.44373 305 ft 10 kts 90°
2026-04-26 00:37 38.94721 -77.44278 305 ft 11 kts 90°
2026-04-26 00:37 38.94720 -77.44183 305 ft 10 kts 91°
2026-04-26 00:38 38.94719 -77.44116 306 ft 6 kts 91°
2026-04-26 00:38 38.94719 -77.44086 308 ft 3 kts 91°
2026-04-26 00:38 38.94718 -77.44046 308 ft 6 kts 91°
2026-04-26 00:38 38.94726 -77.43996 307 ft 5 kts 49°
2026-04-26 00:39 38.94759 -77.43976 307 ft 10 kts 12°
2026-04-26 00:39 38.94870 -77.43969 307 ft 20 kts
2026-04-26 00:39 38.94994 -77.43968 307 ft 16 kts
2026-04-26 00:39 38.95096 -77.43967 306 ft 13 kts
2026-04-26 00:40 38.95179 -77.43966 307 ft 11 kts
2026-04-26 00:40 38.95251 -77.43965 307 ft 10 kts
2026-04-26 00:40 38.95321 -77.43964 306 ft 10 kts
2026-04-26 00:40 38.95389 -77.43964 307 ft 10 kts
2026-04-26 00:41 38.95451 -77.43958 306 ft 8 kts 25°
2026-04-26 00:41 38.95480 -77.43915 307 ft 6 kts 75°
2026-04-26 00:41 38.95484 -77.43843 307 ft 10 kts 91°
2026-04-26 00:41 38.95483 -77.43762 306 ft 8 kts 91°
2026-04-26 00:42 38.95482 -77.43697 308 ft 7 kts 91°
2026-04-26 00:42 38.95481 -77.43638 309 ft 6 kts 99°
2026-04-26 00:42 38.95472 -77.43607 309 ft 1 kts 141°
2026-04-26 00:42 38.95468 -77.43604 308 ft 1 kts 160°
2026-04-26 00:43 38.95461 -77.43602 309 ft 1 kts 180°
2026-04-26 00:43 38.95408 -77.43603 307 ft 26 kts 181°
2026-04-26 00:43 38.95026 -77.43610 305 ft 80 kts 178°
2026-04-26 00:43 38.94275 -77.43616 306 ft 141 kts 182°
2026-04-26 00:44 38.93144 -77.43646 466 ft 172 kts 179°
2026-04-26 00:44 38.91918 -77.43687 998 ft 181 kts 179°
2026-04-26 00:44 38.90667 -77.43728 1711 ft 177 kts 180°
2026-04-26 00:44 38.89447 -77.43803 2368 ft 179 kts 181°
2026-04-26 00:45 38.88159 -77.43849 2622 ft 192 kts 180°
2026-04-26 00:45 38.86767 -77.43921 2744 ft 208 kts 189°
2026-04-26 00:45 38.85289 -77.44219 2841 ft 227 kts 182°
2026-04-26 00:45 38.83642 -77.44261 3143 ft 247 kts 183°
2026-04-26 00:46 38.81961 -77.44911 3608 ft 259 kts 213°
2026-04-26 00:46 38.80735 -77.46558 4429 ft 257 kts 242°
2026-04-26 00:46 38.80227 -77.48745 4899 ft 258 kts 268°
2026-04-26 00:46 38.80561 -77.50992 4995 ft 261 kts 295°
2026-04-26 00:47 38.81695 -77.52798 5003 ft 264 kts 322°
2026-04-26 00:47 38.83298 -77.53978 5000 ft 266 kts 329°
2026-04-26 00:47 38.84839 -77.55025 5000 ft 265 kts 329°
2026-04-26 00:47 38.86466 -77.56134 5002 ft 266 kts 329°
2026-04-26 00:48 38.88106 -77.57246 4999 ft 267 kts 329°
2026-04-26 00:48 38.89762 -77.58373 5000 ft 269 kts 329°
2026-04-26 00:48 38.91403 -77.59489 5001 ft 265 kts 330°
2026-04-26 00:48 38.93150 -77.60147 5002 ft 266 kts 355°
2026-04-26 00:49 38.95013 -77.60075 5001 ft 269 kts 359°
2026-04-26 00:49 38.96886 -77.59968 5033 ft 269 kts 359°
2026-04-26 00:49 38.98753 -77.59858 5037 ft 269 kts 359°
2026-04-26 00:49 39.00627 -77.59752 5036 ft 270 kts 359°
2026-04-26 00:50 39.02499 -77.59643 5035 ft 269 kts 359°
2026-04-26 00:50 39.04365 -77.59536 5037 ft 269 kts 359°
2026-04-26 00:50 39.06243 -77.59428 5163 ft 271 kts 359°
2026-04-26 00:50 39.08136 -77.59322 5701 ft 273 kts 359°
2026-04-26 00:51 39.10025 -77.59219 6545 ft 272 kts 359°
2026-04-26 00:51 39.11933 -77.59116 7204 ft 277 kts 359°
2026-04-26 00:51 39.13871 -77.59010 7948 ft 280 kts 359°
2026-04-26 00:51 39.15824 -77.58903 8676 ft 283 kts 359°
2026-04-26 00:52 39.17801 -77.58791 9415 ft 286 kts 359°
2026-04-26 00:52 39.19794 -77.58462 9881 ft 294 kts 15°
2026-04-26 00:52 39.21582 -77.57154 10018 ft 301 kts 40°
2026-04-26 00:52 39.22820 -77.54962 10048 ft 307 kts 66°
2026-04-26 00:53 39.23258 -77.52286 10120 ft 317 kts 91°
2026-04-26 00:53 39.22803 -77.49443 10282 ft 335 kts 114°
2026-04-26 00:53 39.21657 -77.46744 10470 ft 351 kts 122°
2026-04-26 00:53 39.20405 -77.43994 10946 ft 358 kts 120°
2026-04-26 00:54 39.19250 -77.41083 11558 ft 362 kts 116°
2026-04-26 00:54 39.18228 -77.38146 12131 ft 366 kts 114°
2026-04-26 00:54 39.17240 -77.35065 12739 ft 369 kts 112°
2026-04-26 00:54 39.16297 -77.32020 13318 ft 373 kts 111°
2026-04-26 00:55 39.15532 -77.28761 13895 ft 377 kts 102°
2026-04-26 00:55 39.15013 -77.25485 14407 ft 380 kts 102°
2026-04-26 00:55 39.14461 -77.22137 14903 ft 384 kts 102°
2026-04-26 00:55 39.13886 -77.18733 15277 ft 392 kts 102°
2026-04-26 00:56 39.13302 -77.15285 15828 ft 395 kts 102°
2026-04-26 00:56 39.12743 -77.11814 16329 ft 398 kts 102°
2026-04-26 00:56 39.12190 -77.08304 16832 ft 402 kts 102°
2026-04-26 00:56 39.11632 -77.04763 17331 ft 405 kts 102°
2026-04-26 00:57 39.11068 -77.01192 17824 ft 409 kts 100°
2026-04-26 00:57 39.10749 -76.97540 18302 ft 412 kts 91°
2026-04-26 00:57 39.10821 -76.93842 18712 ft 415 kts 86°
2026-04-26 00:57 39.10939 -76.90126 19126 ft 418 kts 87°
2026-04-26 00:58 39.11037 -76.86367 19559 ft 420 kts 88°
2026-04-26 00:58 39.11129 -76.82597 19973 ft 423 kts 89°
2026-04-26 00:58 39.11219 -76.78806 20377 ft 426 kts 89°
2026-04-26 00:58 39.11311 -76.74984 20776 ft 429 kts 89°
2026-04-26 00:59 39.11403 -76.71131 21167 ft 432 kts 89°
2026-04-26 00:59 39.11495 -76.67247 21530 ft 435 kts 89°
2026-04-26 00:59 39.11587 -76.63343 21928 ft 438 kts 89°
2026-04-26 00:59 39.11678 -76.59414 22304 ft 441 kts 89°
2026-04-26 01:00 39.11769 -76.55458 22691 ft 443 kts 89°
2026-04-26 01:00 39.11917 -76.51478 23051 ft 447 kts 84°
2026-04-26 01:00 39.12370 -76.47505 23405 ft 450 kts 82°
2026-04-26 01:00 39.12838 -76.43494 23747 ft 453 kts 82°
2026-04-26 01:01 39.13295 -76.39472 24108 ft 455 kts 82°
2026-04-26 01:01 39.13751 -76.35425 24438 ft 458 kts 82°
2026-04-26 01:01 39.14206 -76.31363 24770 ft 460 kts 82°
2026-04-26 01:01 39.14663 -76.27269 25106 ft 463 kts 82°
2026-04-26 01:02 39.15123 -76.23152 25455 ft 465 kts 82°
2026-04-26 01:02 39.15588 -76.19024 25798 ft 468 kts 82°
2026-04-26 01:02 39.16062 -76.14920 26150 ft 470 kts 82°
2026-04-26 01:02 39.16545 -76.10750 26560 ft 472 kts 82°
2026-04-26 01:03 39.17028 -76.06554 26902 ft 475 kts 82°
2026-04-26 01:03 39.17512 -76.02319 27253 ft 479 kts 82°
2026-04-26 01:03 39.17997 -75.98056 27643 ft 483 kts 82°
2026-04-26 01:03 39.18499 -75.93763 27968 ft 487 kts 79°
2026-04-26 01:04 39.19458 -75.89573 28348 ft 490 kts 66°
2026-04-26 01:04 39.21054 -75.85698 28716 ft 490 kts 53°
2026-04-26 01:04 39.23214 -75.82307 29105 ft 489 kts 41°
2026-04-26 01:04 39.25824 -75.79509 29499 ft 488 kts 32°
2026-04-26 01:05 39.28609 -75.76970 29810 ft 492 kts 31°
2026-04-26 01:05 39.31386 -75.74348 30114 ft 498 kts 33°
2026-04-26 01:05 39.34128 -75.71574 30491 ft 501 kts 35°
2026-04-26 01:05 39.36832 -75.68704 30864 ft 505 kts 36°
2026-04-26 01:06 39.39523 -75.65776 31308 ft 506 kts 37°
2026-04-26 01:06 39.42212 -75.62820 31618 ft 509 kts 37°
2026-04-26 01:06 39.44915 -75.59842 31952 ft 512 kts 37°
2026-04-26 01:06 39.47637 -75.56839 32298 ft 515 kts 37°
2026-04-26 01:07 39.50371 -75.53823 32622 ft 518 kts 37°
2026-04-26 01:07 39.53120 -75.50787 32959 ft 521 kts 37°
2026-04-26 01:07 39.55888 -75.47729 33280 ft 524 kts 37°
2026-04-26 01:07 39.58668 -75.44656 33588 ft 528 kts 38°
2026-04-26 01:08 39.61471 -75.41551 33907 ft 530 kts 37°
2026-04-26 01:08 39.64272 -75.38445 34317 ft 531 kts 37°
2026-04-26 01:08 39.67084 -75.35326 34616 ft 533 kts 37°
2026-04-26 01:08 39.69901 -75.32197 34949 ft 535 kts 37°
2026-04-26 01:09 39.72727 -75.29054 35056 ft 531 kts 37°
2026-04-26 01:09 39.75505 -75.25957 35062 ft 526 kts 37°
2026-04-26 01:09 39.80919 -75.19292 35065 ft 549 kts 46°
2026-04-26 01:10 39.86012 -75.11677 35064 ft 566 kts 46°
2026-04-26 01:10 39.91126 -75.04078 35055 ft 555 kts 45°
2026-04-26 01:11 39.96215 -74.96472 35069 ft 558 kts 48°
2026-04-26 01:11 40.00619 -74.88168 35073 ft 562 kts 54°
2026-04-26 01:12 40.04948 -74.79687 35071 ft 562 kts 54°
2026-04-26 01:12 40.09309 -74.71129 35078 ft 562 kts 54°
2026-04-26 01:13 40.13594 -74.62682 35079 ft 563 kts 54°
2026-04-26 01:13 40.17919 -74.54145 35076 ft 562 kts 52°
2026-04-26 01:14 40.23067 -74.46554 35082 ft 555 kts 37°
2026-04-26 01:14 40.29028 -74.40180 35106 ft 554 kts 35°
2026-04-26 01:15 40.34971 -74.33796 35089 ft 555 kts 35°
2026-04-26 01:15 40.39958 -74.28434 35104 ft 552 kts 35°
2026-04-26 01:16 40.45905 -74.22040 35112 ft 553 kts 35°
2026-04-26 01:16 40.51862 -74.15624 35126 ft 555 kts 35°
2026-04-26 01:17 40.57827 -74.09182 35135 ft 556 kts 35°
2026-04-26 01:17 40.63789 -74.02728 35158 ft 555 kts 35°
2026-04-26 01:18 40.69745 -73.96265 35145 ft 553 kts 34°
2026-04-26 01:18 40.75636 -73.89858 35125 ft 553 kts 35°
2026-04-26 01:19 40.81570 -73.83389 35120 ft 553 kts 35°
2026-04-26 01:19 40.87163 -73.76311 35115 ft 564 kts 47°
2026-04-26 01:20 40.91747 -73.67877 35123 ft 566 kts 52°
2026-04-26 01:20 40.96278 -73.59375 35122 ft 562 kts 51°
2026-04-26 01:21 41.00771 -73.50911 35136 ft 563 kts 51°
2026-04-26 01:21 41.05268 -73.42393 35120 ft 564 kts 51°
2026-04-26 01:22 41.09752 -73.33868 35130 ft 564 kts 52°
2026-04-26 01:22 41.14226 -73.25338 35137 ft 561 kts 51°
2026-04-26 01:23 41.18680 -73.16826 35140 ft 563 kts 51°
2026-04-26 01:23 41.23141 -73.08276 35144 ft 563 kts 52°
2026-04-26 01:24 41.27595 -72.99714 35144 ft 563 kts 52°
2026-04-26 01:24 41.31740 -72.90853 35146 ft 564 kts 56°
2026-04-26 01:25 41.35776 -72.81882 35152 ft 565 kts 56°
2026-04-26 01:25 41.39809 -72.72896 35140 ft 565 kts 56°
2026-04-26 01:26 41.43827 -72.63899 35131 ft 565 kts 56°
2026-04-26 01:26 41.47836 -72.54886 35135 ft 564 kts 56°
2026-04-26 01:27 41.51831 -72.45882 35130 ft 564 kts 56°
2026-04-26 01:27 41.55791 -72.36931 35146 ft 564 kts 56°
2026-04-26 01:28 41.59776 -72.27894 35148 ft 564 kts 56°
2026-04-26 01:28 41.63743 -72.18870 35136 ft 562 kts 56°
2026-04-26 01:29 41.67700 -72.09844 35157 ft 563 kts 56°
2026-04-26 01:29 41.71652 -72.00802 35153 ft 563 kts 56°
2026-04-26 01:30 41.75599 -71.91742 35147 ft 563 kts 56°
2026-04-26 01:30 41.79715 -71.82879 35149 ft 557 kts 47°
2026-04-26 01:31 41.85085 -71.75576 35143 ft 545 kts 32°
2026-04-26 01:31 41.91088 -71.69395 35144 ft 544 kts 32°
2026-04-26 01:32 41.97067 -71.63161 35149 ft 544 kts 31°
2026-04-26 01:32 42.03048 -71.56926 35146 ft 544 kts 31°
2026-04-26 01:33 42.09025 -71.50687 35142 ft 543 kts 31°
2026-04-26 01:33 42.14983 -71.44455 35143 ft 542 kts 31°
2026-04-26 01:34 42.20932 -71.38218 35138 ft 542 kts 31°
2026-04-26 01:34 42.26876 -71.31972 35134 ft 542 kts 31°
2026-04-26 01:35 42.32817 -71.25712 35130 ft 541 kts 31°
2026-04-26 01:35 42.38749 -71.19447 35147 ft 541 kts 32°
2026-04-26 01:36 42.44675 -71.13171 35146 ft 541 kts 32°
2026-04-26 01:37 42.53561 -71.03733 35147 ft 541 kts 32°
2026-04-26 01:37 42.59481 -70.97426 35148 ft 541 kts 32°
2026-04-26 01:38 42.65361 -70.91050 35144 ft 544 kts 36°
2026-04-26 01:38 42.70469 -70.83347 35142 ft 553 kts 49°
2026-04-26 01:39 42.74680 -70.74532 35135 ft 557 kts 52°
2026-04-26 01:39 42.78896 -70.65701 35136 ft 555 kts 52°
2026-04-26 01:40 42.83056 -70.56938 35137 ft 555 kts 52°
2026-04-26 01:40 42.87223 -70.48100 35134 ft 553 kts 52°
2026-04-26 01:41 42.91379 -70.39257 35153 ft 553 kts 52°
2026-04-26 01:41 42.95512 -70.30436 35153 ft 552 kts 52°
2026-04-26 01:42 42.99645 -70.21589 35141 ft 552 kts 52°
2026-04-26 01:42 43.03756 -70.12760 35149 ft 549 kts 52°
2026-04-26 01:43 43.07854 -70.03936 35146 ft 550 kts 52°
2026-04-26 01:43 43.11946 -69.95100 35146 ft 550 kts 52°
2026-04-26 01:44 43.16032 -69.86246 35158 ft 550 kts 52°
2026-04-26 01:44 43.20098 -69.77408 35146 ft 546 kts 52°
2026-04-26 01:45 43.24145 -69.68589 35146 ft 547 kts 52°
2026-04-26 01:45 43.28190 -69.59749 35146 ft 547 kts 52°
2026-04-26 01:46 43.32225 -69.50901 35156 ft 547 kts 52°
2026-04-26 01:46 43.36253 -69.42041 35138 ft 547 kts 52°
2026-04-26 01:47 43.40274 -69.33171 35135 ft 547 kts 52°
2026-04-26 01:47 43.44278 -69.24309 35137 ft 545 kts 52°
2026-04-26 01:48 43.48276 -69.15436 35138 ft 545 kts 52°
2026-04-26 01:48 43.52264 -69.06558 35138 ft 545 kts 52°
2026-04-26 01:49 43.56246 -68.97667 35137 ft 545 kts 52°
2026-04-26 01:49 43.60223 -68.88760 35157 ft 545 kts 52°
2026-04-26 01:50 43.64189 -68.79849 35150 ft 545 kts 52°
2026-04-26 01:50 43.68147 -68.70930 35140 ft 544 kts 52°
2026-04-26 01:51 43.72091 -68.62012 35137 ft 543 kts 52°
2026-04-26 01:51 43.76021 -68.53100 35131 ft 542 kts 52°
2026-04-26 01:52 43.79947 -68.44173 35131 ft 543 kts 52°
2026-04-26 01:52 43.83864 -68.35238 35127 ft 543 kts 52°
2026-04-26 01:53 43.87747 -68.26351 35136 ft 542 kts 52°
2026-04-26 01:53 43.91648 -68.17397 35127 ft 543 kts 52°
2026-04-26 01:54 43.95541 -68.08430 35119 ft 541 kts 52°
2026-04-26 01:54 43.99416 -67.99479 35121 ft 541 kts 52°
2026-04-26 01:55 44.03275 -67.90536 35115 ft 540 kts 52°
2026-04-26 01:55 44.07132 -67.81574 35113 ft 540 kts 52°
2026-04-26 01:56 44.10980 -67.72601 35106 ft 540 kts 52°
2026-04-26 01:56 44.14820 -67.63620 35122 ft 539 kts 52°
2026-04-26 01:57 44.18631 -67.54674 35101 ft 537 kts 52°
2026-04-26 01:57 44.22436 -67.45720 35114 ft 536 kts 51°
2026-04-26 01:58 44.26223 -67.36781 35101 ft 536 kts 52°
2026-04-26 01:58 44.30000 -67.27833 35096 ft 534 kts 51°
2026-04-26 01:59 44.33767 -67.18885 35095 ft 534 kts 52°
2026-04-26 01:59 44.37528 -67.09928 35090 ft 534 kts 52°
2026-04-26 02:00 44.41286 -67.00963 35088 ft 535 kts 52°
2026-04-26 02:00 44.44450 -66.93543 35084 ft 533 kts 50°
2026-04-26 02:01 44.48344 -66.84711 35090 ft 532 kts 50°
2026-04-26 02:01 44.52237 -66.75893 35077 ft 533 kts 50°
2026-04-26 02:02 44.56124 -66.67044 35073 ft 532 kts 50°
2026-04-26 02:02 44.59997 -66.58194 35076 ft 532 kts 50°
2026-04-26 02:03 44.63863 -66.49335 35080 ft 533 kts 50°
2026-04-26 02:03 44.67726 -66.40451 35072 ft 533 kts 50°
2026-04-26 02:04 44.71565 -66.31594 35075 ft 530 kts 50°
2026-04-26 02:04 44.75400 -66.22721 35072 ft 531 kts 50°
2026-04-26 02:05 44.79221 -66.13835 35078 ft 531 kts 50°
2026-04-26 02:05 44.83036 -66.04934 35081 ft 530 kts 51°
2026-04-26 02:06 44.86831 -65.96046 35086 ft 529 kts 51°
2026-04-26 02:06 44.90620 -65.87151 35093 ft 529 kts 51°
2026-04-26 02:07 44.94403 -65.78239 35090 ft 529 kts 51°
2026-04-26 02:07 44.98174 -65.69326 35088 ft 527 kts 52°
2026-04-26 02:08 45.01927 -65.60426 35092 ft 527 kts 52°
2026-04-26 02:08 45.05672 -65.51522 35083 ft 526 kts 52°
2026-04-26 02:09 45.09400 -65.42628 35118 ft 526 kts 52°
2026-04-26 02:09 45.13098 -65.33772 35086 ft 522 kts 53°
2026-04-26 02:10 45.16791 -65.24911 35081 ft 522 kts 53°
2026-04-26 02:10 45.20475 -65.16040 35083 ft 522 kts 53°
2026-04-26 02:11 45.24155 -65.07150 35075 ft 520 kts 53°
2026-04-26 02:11 45.27799 -64.98313 35082 ft 519 kts 53°
2026-04-26 02:12 45.31445 -64.89453 35086 ft 520 kts 53°
2026-04-26 02:12 45.35082 -64.80583 35076 ft 517 kts 53°
2026-04-26 02:13 45.38691 -64.71749 35069 ft 515 kts 54°
2026-04-26 02:13 45.42286 -64.62924 35068 ft 516 kts 54°
2026-04-26 02:14 45.45879 -64.54080 35065 ft 516 kts 54°
2026-04-26 02:14 45.49465 -64.45223 35061 ft 516 kts 54°
2026-04-26 02:15 45.53030 -64.36386 35049 ft 512 kts 55°
2026-04-26 02:15 45.56582 -64.27557 35049 ft 513 kts 55°
2026-04-26 02:16 45.60130 -64.18712 35048 ft 513 kts 55°
2026-04-26 02:16 45.63668 -64.09860 35052 ft 512 kts 55°
2026-04-26 02:17 45.67190 -64.01020 35038 ft 512 kts 55°
2026-04-26 02:17 45.70707 -63.92166 35043 ft 512 kts 55°
2026-04-26 02:18 45.74218 -63.83297 35043 ft 512 kts 55°
2026-04-26 02:18 45.77719 -63.74424 35041 ft 512 kts 55°
2026-04-26 02:19 45.81218 -63.65527 35043 ft 512 kts 55°
2026-04-26 02:19 45.84710 -63.56624 35039 ft 512 kts 56°
2026-04-26 02:20 45.88192 -63.47713 35040 ft 512 kts 56°
2026-04-26 02:20 45.91668 -63.38789 35030 ft 510 kts 56°
2026-04-26 02:21 45.95116 -63.29907 35032 ft 510 kts 56°
2026-04-26 02:21 45.98543 -63.21055 35031 ft 510 kts 56°
2026-04-26 02:22 46.01984 -63.12136 35030 ft 510 kts 56°
2026-04-26 02:22 46.05414 -63.03214 35027 ft 506 kts 56°
2026-04-26 02:23 46.08809 -62.94354 35023 ft 506 kts 56°
2026-04-26 02:23 46.12208 -62.85461 35023 ft 507 kts 56°
2026-04-26 02:24 46.15599 -62.76555 35022 ft 507 kts 57°
2026-04-26 02:24 46.18986 -62.67632 35015 ft 508 kts 57°
2026-04-26 02:25 46.22379 -62.58663 35008 ft 509 kts 57°
2026-04-26 02:25 46.25766 -62.49680 35009 ft 509 kts 57°
2026-04-26 02:26 46.29144 -62.40688 34995 ft 509 kts 57°
2026-04-26 02:26 46.32509 -62.31704 34992 ft 505 kts 57°
2026-04-26 02:27 46.35851 -62.22751 34990 ft 506 kts 57°
2026-04-26 02:27 46.39189 -62.13781 34987 ft 506 kts 58°
2026-04-26 02:28 46.42519 -62.04801 34979 ft 506 kts 58°
2026-04-26 02:28 46.45758 -61.96033 34996 ft 500 kts 58°
2026-04-26 02:29 46.48912 -61.87474 34963 ft 501 kts 58°
2026-04-26 02:29 46.52076 -61.78862 34958 ft 501 kts 58°
2026-04-26 02:30 46.55285 -61.70096 34951 ft 501 kts 58°
2026-04-26 02:30 46.58515 -61.61241 34957 ft 497 kts 58°
2026-04-26 02:31 46.61678 -61.52543 34948 ft 497 kts 58°
2026-04-26 02:31 46.64892 -61.43680 34933 ft 497 kts 58°
2026-04-26 02:32 46.68111 -61.34768 34930 ft 497 kts 58°
2026-04-26 02:32 46.71319 -61.25859 34936 ft 495 kts 58°
2026-04-26 02:33 46.74516 -61.16951 34913 ft 498 kts 58°
2026-04-26 02:33 46.77722 -61.07989 34917 ft 498 kts 58°
2026-04-26 02:34 46.80919 -60.99019 34934 ft 498 kts 58°
2026-04-26 02:34 46.84111 -60.90035 34933 ft 499 kts 58°
2026-04-26 02:35 46.87298 -60.81030 34939 ft 499 kts 59°
2026-04-26 02:35 46.90480 -60.72013 34921 ft 499 kts 59°
2026-04-26 02:36 46.93655 -60.62981 34929 ft 499 kts 59°
2026-04-26 02:36 46.96821 -60.53948 34912 ft 499 kts 58°
2026-04-26 02:37 46.99983 -60.44892 34897 ft 499 kts 59°
2026-04-26 02:37 47.03137 -60.35829 34892 ft 500 kts 59°
2026-04-26 02:38 47.06287 -60.26749 34872 ft 500 kts 59°
2026-04-26 02:38 47.09430 -60.17656 34867 ft 500 kts 59°
2026-04-26 02:39 47.12562 -60.08562 34863 ft 499 kts 59°
2026-04-26 02:39 47.15687 -59.99458 34862 ft 499 kts 59°
2026-04-26 02:40 47.18810 -59.90329 34846 ft 500 kts 59°
2026-04-26 02:40 47.21923 -59.81195 34851 ft 499 kts 59°
2026-04-26 02:41 47.25020 -59.72075 34839 ft 499 kts 59°
2026-04-26 02:41 47.28116 -59.62929 34833 ft 500 kts 60°
2026-04-26 02:42 47.31212 -59.53752 34823 ft 501 kts 60°
2026-04-26 02:42 47.34301 -59.44560 34816 ft 500 kts 60°
2026-04-26 02:43 47.38407 -59.32293 34810 ft 501 kts 61°
2026-04-26 02:43 47.41482 -59.23066 34809 ft 501 kts 61°
2026-04-26 02:44 47.44550 -59.13829 34802 ft 501 kts 61°
2026-04-26 02:44 47.47613 -59.04572 34810 ft 501 kts 61°
2026-04-26 02:45 47.50662 -58.95321 34784 ft 501 kts 62°
2026-04-26 02:45 47.53709 -58.86047 34780 ft 501 kts 62°
2026-04-26 02:46 47.56743 -58.76778 34782 ft 501 kts 62°
2026-04-26 02:46 47.59774 -58.67485 34761 ft 501 kts 62°
2026-04-26 02:47 47.62780 -58.58234 34753 ft 497 kts 62°
2026-04-26 02:47 47.65775 -58.48987 34754 ft 498 kts 62°
2026-04-26 02:48 47.68762 -58.39728 34752 ft 497 kts 62°
2026-04-26 02:48 47.71724 -58.30517 34745 ft 498 kts 62°
2026-04-26 02:49 47.74709 -58.21195 34740 ft 496 kts 61°
2026-04-26 02:49 47.77647 -58.11989 34735 ft 495 kts 62°
2026-04-26 02:50 47.80592 -58.02726 34740 ft 497 kts 62°
2026-04-26 02:50 47.83557 -57.93372 34724 ft 501 kts 62°
2026-04-26 02:51 47.86515 -57.83995 34728 ft 498 kts 62°
2026-04-26 02:51 47.89448 -57.74669 34734 ft 498 kts 62°
2026-04-26 02:52 47.92377 -57.65320 34709 ft 497 kts 62°
2026-04-26 02:52 47.95297 -57.55965 34703 ft 497 kts 62°
2026-04-26 02:53 47.98212 -57.46590 34710 ft 497 kts 63°
2026-04-26 02:53 48.01117 -57.37212 34714 ft 498 kts 63°
2026-04-26 02:54 48.04019 -57.27809 34704 ft 498 kts 63°
2026-04-26 02:54 48.06909 -57.18410 34719 ft 498 kts 63°
2026-04-26 02:55 48.09783 -57.09025 34704 ft 496 kts 63°
2026-04-26 02:55 48.12639 -56.99664 34669 ft 494 kts 63°
2026-04-26 02:56 48.15488 -56.90296 34669 ft 494 kts 63°
2026-04-26 02:56 48.18329 -56.80915 34656 ft 495 kts 63°
2026-04-26 02:57 48.21161 -56.71529 34658 ft 494 kts 63°
2026-04-26 02:57 48.23985 -56.62132 34625 ft 494 kts 63°
2026-04-26 02:58 48.26801 -56.52729 34625 ft 494 kts 63°
2026-04-26 02:58 48.29608 -56.43317 34628 ft 494 kts 63°
2026-04-26 02:59 48.32407 -56.33895 34634 ft 493 kts 63°
2026-04-26 02:59 48.35201 -56.24458 34616 ft 494 kts 63°
2026-04-26 03:00 48.37984 -56.15017 34623 ft 494 kts 63°
2026-04-26 03:00 48.40758 -56.05571 34622 ft 493 kts 63°
2026-04-26 03:01 48.43527 -55.96106 34601 ft 494 kts 63°
2026-04-26 03:01 48.46289 -55.86631 34610 ft 494 kts 64°
2026-04-26 03:02 48.49040 -55.77152 34605 ft 493 kts 64°
2026-04-26 03:02 48.51782 -55.67671 34606 ft 493 kts 64°
2026-04-26 03:03 48.54516 -55.58179 34592 ft 494 kts 64°
2026-04-26 03:03 48.57242 -55.48678 34617 ft 494 kts 64°
2026-04-26 03:04 48.59964 -55.39150 34595 ft 494 kts 64°
2026-04-26 03:04 48.62676 -55.29621 34583 ft 494 kts 64°
2026-04-26 03:05 48.65379 -55.20088 34582 ft 494 kts 64°
2026-04-26 03:05 48.68077 -55.10532 34582 ft 494 kts 64°
2026-04-26 03:06 48.70765 -55.00970 34580 ft 493 kts 64°
2026-04-26 03:06 48.73438 -54.91429 34563 ft 493 kts 64°
2026-04-26 03:07 48.76107 -54.81862 34562 ft 493 kts 64°
2026-04-26 03:07 48.78769 -54.72283 34556 ft 493 kts 64°
2026-04-26 03:08 48.81401 -54.62770 34546 ft 493 kts 64°
2026-04-26 03:08 48.84050 -54.53162 34542 ft 494 kts 64°
2026-04-26 03:09 48.86691 -54.43540 34542 ft 494 kts 64°
2026-04-26 03:09 48.89325 -54.33904 34539 ft 494 kts 65°
2026-04-26 03:10 48.91954 -54.24248 34529 ft 494 kts 65°
2026-04-26 03:10 48.94574 -54.14587 34525 ft 494 kts 65°
2026-04-26 03:11 48.97180 -54.04934 34522 ft 493 kts 65°
2026-04-26 03:11 48.99781 -53.95261 34523 ft 493 kts 65°
2026-04-26 03:12 49.02370 -53.85592 34505 ft 493 kts 65°
2026-04-26 03:12 49.04954 -53.75903 34514 ft 494 kts 65°
2026-04-26 03:13 49.07537 -53.66179 34500 ft 497 kts 65°
2026-04-26 03:13 49.10122 -53.56404 34500 ft 497 kts 65°
2026-04-26 03:14 49.12687 -53.46662 34487 ft 497 kts 65°
2026-04-26 03:14 49.15035 -53.37707 34487 ft 497 kts 65°
2026-04-26 03:15 49.17471 -53.28384 34484 ft 497 kts 65°
2026-04-26 03:15 49.20029 -53.18551 34484 ft 497 kts 65°
2026-04-26 03:16 49.22577 -53.08712 34467 ft 498 kts 65°
2026-04-26 03:16 49.25117 -52.98863 34468 ft 498 kts 65°
2026-04-26 03:17 49.27649 -52.89001 34480 ft 498 kts 66°
2026-04-26 03:17 49.30174 -52.79125 34475 ft 499 kts 66°
2026-04-26 03:18 49.32714 -52.69163 34453 ft 502 kts 66°
2026-04-26 03:18 49.35251 -52.59186 34446 ft 502 kts 66°
2026-04-26 03:19 49.37781 -52.49195 34445 ft 502 kts 66°
2026-04-26 03:19 49.40302 -52.39198 34437 ft 502 kts 66°
2026-04-26 03:20 49.42812 -52.29202 34439 ft 502 kts 66°
2026-04-26 03:20 49.44070 -52.24175 34607 ft 505 kts 66°
2026-04-26 03:20 49.45328 -52.19137 35026 ft 506 kts 66°
2026-04-26 03:21 49.46588 -52.14082 35398 ft 507 kts 66°
2026-04-26 03:21 49.47847 -52.09013 35783 ft 508 kts 67°
2026-04-26 03:21 49.49100 -52.03940 36141 ft 509 kts 67°
2026-04-26 03:21 49.50371 -51.98850 36518 ft 510 kts 67°
2026-04-26 03:22 49.51623 -51.93744 36892 ft 511 kts 68°
2026-04-26 03:22 49.52893 -51.88634 37254 ft 511 kts 66°
2026-04-26 03:22 49.54226 -51.83562 37544 ft 514 kts 66°
2026-04-26 03:22 49.55579 -51.78452 37869 ft 515 kts 66°
2026-04-26 03:23 49.56924 -51.73327 38227 ft 516 kts 66°
2026-04-26 03:23 49.58259 -51.68189 38394 ft 519 kts 67°
2026-04-26 03:23 49.60901 -51.57926 38418 ft 511 kts 67°
2026-04-26 03:24 49.63516 -51.47706 38414 ft 513 kts 67°
2026-04-26 03:24 49.66129 -51.37451 38415 ft 513 kts 67°
2026-04-26 03:25 49.68731 -51.27188 38412 ft 513 kts 67°
2026-04-26 03:25 49.70887 -51.18652 38409 ft 513 kts 67°
2026-04-26 03:26 49.73471 -51.08375 38412 ft 513 kts 68°
2026-04-26 03:26 49.76047 -50.98086 38409 ft 513 kts 68°
2026-04-26 03:27 49.78613 -50.87787 38409 ft 513 kts 68°
2026-04-26 03:27 49.81177 -50.77448 38404 ft 515 kts 68°
2026-04-26 03:28 49.83734 -50.67092 38406 ft 514 kts 68°
2026-04-26 03:28 49.86275 -50.56751 38404 ft 514 kts 68°
2026-04-26 03:29 49.88809 -50.46389 38397 ft 514 kts 68°
2026-04-26 03:29 49.91333 -50.36021 38401 ft 514 kts 68°
2026-04-26 03:30 49.93847 -50.25645 38406 ft 514 kts 68°
2026-04-26 03:30 49.96354 -50.15248 38407 ft 514 kts 68°
2026-04-26 03:31 49.98848 -50.04857 38400 ft 513 kts 68°
2026-04-26 03:31 50.01358 -49.94463 38401 ft 514 kts 68°
2026-04-26 03:32 50.03958 -49.84124 38401 ft 514 kts 67°
2026-04-26 03:32 50.06566 -49.73783 38404 ft 513 kts 68°
2026-04-26 03:33 50.09161 -49.63431 38397 ft 513 kts 68°
2026-04-26 03:33 50.11743 -49.53072 38396 ft 514 kts 68°
2026-04-26 03:34 50.14297 -49.42769 38402 ft 513 kts 68°
2026-04-26 03:34 50.16854 -49.32384 38400 ft 512 kts 68°
2026-04-26 03:35 50.19409 -49.21945 38398 ft 512 kts 68°
2026-04-26 03:35 50.21942 -49.11548 38398 ft 513 kts 68°
2026-04-26 03:36 50.24447 -49.01219 38402 ft 512 kts 68°
2026-04-26 03:36 50.26958 -48.90814 38404 ft 511 kts 69°
2026-04-26 03:37 50.29462 -48.80388 38400 ft 513 kts 69°
2026-04-26 03:37 50.31961 -48.69935 38401 ft 514 kts 69°
2026-04-26 03:38 50.34451 -48.59463 38401 ft 513 kts 69°
2026-04-26 03:38 50.36928 -48.49000 38403 ft 512 kts 69°
2026-04-26 03:39 50.39397 -48.38523 38403 ft 513 kts 70°
2026-04-26 03:39 50.41855 -48.28039 38404 ft 513 kts 70°
2026-04-26 03:40 50.44304 -48.17540 38409 ft 512 kts 70°
2026-04-26 03:40 50.46744 -48.07031 38408 ft 511 kts 70°
2026-04-26 03:41 50.49172 -47.96524 38409 ft 513 kts 70°
2026-04-26 03:41 50.51593 -47.85993 38409 ft 513 kts 70°
2026-04-26 03:42 50.54003 -47.75459 38417 ft 512 kts 71°
2026-04-26 03:42 50.56409 -47.64889 38417 ft 513 kts 71°
2026-04-26 03:43 50.58805 -47.54308 38415 ft 513 kts 71°
2026-04-26 03:43 50.61191 -47.43720 38420 ft 514 kts 71°
2026-04-26 03:44 50.63566 -47.33126 38417 ft 513 kts 71°
2026-04-26 03:44 50.65933 -47.22515 38417 ft 512 kts 71°
2026-04-26 03:45 50.68288 -47.11904 38417 ft 513 kts 71°
2026-04-26 03:45 50.70631 -47.01296 38418 ft 512 kts 71°
2026-04-26 03:46 50.72961 -46.90690 38425 ft 511 kts 72°
2026-04-26 03:47 50.76439 -46.74756 38423 ft 512 kts 72°
2026-04-26 03:47 50.78747 -46.64118 38427 ft 513 kts 72°
2026-04-26 03:48 50.81053 -46.53430 38426 ft 513 kts 72°
2026-04-26 03:48 50.83347 -46.42740 38430 ft 514 kts 72°
2026-04-26 03:49 50.85631 -46.32041 38435 ft 514 kts 72°
2026-04-26 03:49 50.87913 -46.21300 38436 ft 513 kts 73°
2026-04-26 03:50 50.90165 -46.10641 38440 ft 513 kts 73°
2026-04-26 03:50 50.92435 -45.99836 38441 ft 514 kts 73°
2026-04-26 03:51 50.94680 -45.89096 38443 ft 514 kts 73°
2026-04-26 03:51 50.96903 -45.78406 38449 ft 514 kts 73°
2026-04-26 03:52 50.99130 -45.67635 38446 ft 514 kts 73°
2026-04-26 03:52 51.01347 -45.56857 38451 ft 514 kts 73°
2026-04-26 03:53 51.03557 -45.46053 38451 ft 515 kts 74°
2026-04-26 03:53 51.05756 -45.35241 38453 ft 514 kts 74°
2026-04-26 03:54 51.07949 -45.24406 38456 ft 514 kts 74°
2026-04-26 03:54 51.10128 -45.13576 38456 ft 514 kts 74°
2026-04-26 03:55 51.12296 -45.02738 38462 ft 514 kts 74°
2026-04-26 03:55 51.14453 -44.91897 38459 ft 514 kts 74°
2026-04-26 03:56 51.16602 -44.81039 38462 ft 514 kts 75°
2026-04-26 03:56 51.18739 -44.70180 38461 ft 513 kts 75°
2026-04-26 03:57 51.20860 -44.59336 38469 ft 513 kts 75°
2026-04-26 03:57 51.22975 -44.48466 38467 ft 513 kts 75°
2026-04-26 03:58 51.25082 -44.37574 38468 ft 514 kts 75°
2026-04-26 03:58 51.27166 -44.26739 38450 ft 514 kts 75°
2026-04-26 03:59 51.29264 -44.15770 38476 ft 514 kts 76°
2026-04-26 03:59 51.31344 -44.04832 38473 ft 514 kts 76°
2026-04-26 04:00 51.33412 -43.93892 38473 ft 513 kts 76°
2026-04-26 04:00 51.35465 -43.82966 38474 ft 513 kts 76°
2026-04-26 04:01 51.37507 -43.72038 38471 ft 512 kts 76°
2026-04-26 04:01 51.39536 -43.61112 38473 ft 512 kts 76°
2026-04-26 04:02 51.41556 -43.50175 38471 ft 512 kts 76°
2026-04-26 04:02 51.43565 -43.39227 38469 ft 512 kts 76°
2026-04-26 04:03 51.45551 -43.28347 38460 ft 512 kts 76°
2026-04-26 04:03 51.47553 -43.17303 38468 ft 513 kts 77°
2026-04-26 04:04 51.49537 -43.06301 38468 ft 513 kts 77°
2026-04-26 04:04 51.51508 -42.95300 38469 ft 513 kts 77°
2026-04-26 04:05 51.53468 -42.84293 38467 ft 513 kts 77°
2026-04-26 04:05 51.55420 -42.73266 38467 ft 513 kts 77°
2026-04-26 04:06 51.57346 -42.62319 38464 ft 513 kts 77°
2026-04-26 04:06 51.59276 -42.51280 38464 ft 513 kts 77°
2026-04-26 04:07 51.61195 -42.40235 38466 ft 513 kts 77°
2026-04-26 04:07 51.63103 -42.29187 38458 ft 513 kts 78°
2026-04-26 04:08 51.65003 -42.18113 38457 ft 513 kts 78°
2026-04-26 04:08 51.66891 -42.07040 38467 ft 514 kts 78°
2026-04-26 04:09 51.68775 -41.95918 38459 ft 514 kts 78°
2026-04-26 04:09 51.70332 -41.86678 38460 ft 514 kts 78°
2026-04-26 04:10 51.72196 -41.75544 38455 ft 515 kts 78°
2026-04-26 04:10 51.74053 -41.64382 38456 ft 515 kts 78°
2026-04-26 04:11 51.75898 -41.53218 38457 ft 515 kts 78°
2026-04-26 04:11 51.77731 -41.42048 38456 ft 515 kts 79°
2026-04-26 04:12 51.79556 -41.30864 38442 ft 516 kts 79°
2026-04-26 04:12 51.81372 -41.19654 38452 ft 516 kts 79°
2026-04-26 04:13 51.83179 -41.08425 38454 ft 516 kts 79°
2026-04-26 04:13 51.84975 -40.97195 38453 ft 516 kts 79°
2026-04-26 04:14 51.86762 -40.85938 38450 ft 518 kts 79°
2026-04-26 04:14 51.88542 -40.74650 38452 ft 518 kts 79°
2026-04-26 04:15 51.90315 -40.63333 38454 ft 518 kts 79°
2026-04-26 04:15 51.92073 -40.52027 38457 ft 518 kts 80°
2026-04-26 04:16 51.93825 -40.40703 38458 ft 518 kts 80°
2026-04-26 04:16 51.95572 -40.29373 38445 ft 518 kts 80°
2026-04-26 04:17 51.97310 -40.18036 38458 ft 518 kts 80°
2026-04-26 04:17 51.99036 -40.06698 38456 ft 518 kts 80°
2026-04-26 04:18 52.00848 -39.95375 38459 ft 521 kts 74°
2026-04-26 04:18 52.03680 -39.84485 38437 ft 525 kts 70°
2026-04-26 04:19 52.06584 -39.73593 38466 ft 525 kts 71°
2026-04-26 04:19 52.09364 -39.62633 38464 ft 525 kts 72°
2026-04-26 04:20 52.12103 -39.51638 38450 ft 524 kts 72°
2026-04-26 04:20 52.14838 -39.40587 38437 ft 527 kts 72°
2026-04-26 04:21 52.17564 -39.29495 38459 ft 527 kts 73°
2026-04-26 04:21 52.20279 -39.18390 38454 ft 527 kts 73°
2026-04-26 04:22 52.22982 -39.07274 38456 ft 527 kts 73°
2026-04-26 04:22 52.25675 -38.96145 38454 ft 527 kts 73°
2026-04-26 04:23 52.28360 -38.84987 38454 ft 529 kts 73°
2026-04-26 04:23 52.31041 -38.73796 38454 ft 529 kts 73°
2026-04-26 04:24 52.33711 -38.62586 38456 ft 529 kts 73°
2026-04-26 04:24 52.36366 -38.51386 38456 ft 529 kts 73°
2026-04-26 04:25 52.39013 -38.40158 38469 ft 529 kts 73°
2026-04-26 04:25 52.41649 -38.28918 38459 ft 528 kts 73°
2026-04-26 04:26 52.44274 -38.17669 38459 ft 528 kts 74°
2026-04-26 04:26 52.46887 -38.06408 38466 ft 528 kts 74°
2026-04-26 04:27 52.49491 -37.95132 38494 ft 528 kts 74°
2026-04-26 04:27 52.52080 -37.83855 38501 ft 528 kts 74°
2026-04-26 04:28 52.54659 -37.72565 38500 ft 528 kts 74°
2026-04-26 04:28 52.57226 -37.61266 38484 ft 528 kts 74°
2026-04-26 04:29 52.59784 -37.49951 38497 ft 527 kts 74°
2026-04-26 04:29 52.62325 -37.38647 38506 ft 527 kts 74°
2026-04-26 04:30 52.64855 -37.27329 38505 ft 527 kts 74°
2026-04-26 04:30 52.67375 -37.15993 38516 ft 527 kts 75°
2026-04-26 04:31 52.69886 -37.04634 38523 ft 528 kts 74°
2026-04-26 04:31 52.72392 -36.93243 38528 ft 528 kts 75°
2026-04-26 04:32 52.74883 -36.81854 38540 ft 528 kts 75°
2026-04-26 04:32 52.77364 -36.70450 38539 ft 528 kts 75°
2026-04-26 04:33 52.79833 -36.59031 38545 ft 528 kts 75°
2026-04-26 04:33 52.82295 -36.47588 38545 ft 528 kts 75°
2026-04-26 04:34 52.84744 -36.36137 38555 ft 528 kts 75°
2026-04-26 04:34 52.87182 -36.24676 38567 ft 528 kts 75°
2026-04-26 04:35 52.89609 -36.13198 38570 ft 529 kts 75°
2026-04-26 04:35 52.92028 -36.01698 38578 ft 528 kts 75°
2026-04-26 04:36 52.94416 -35.90278 38582 ft 528 kts 75°
2026-04-26 04:36 52.96826 -35.78685 38592 ft 528 kts 75°
2026-04-26 04:37 52.99208 -35.67161 38585 ft 526 kts 75°
2026-04-26 04:37 53.01565 -35.55697 38599 ft 525 kts 75°
2026-04-26 04:38 53.03912 -35.44207 38610 ft 525 kts 75°
2026-04-26 04:38 53.06248 -35.32706 38599 ft 525 kts 75°
2026-04-26 04:39 53.08576 -35.21176 38610 ft 525 kts 75°
2026-04-26 04:39 53.10885 -35.09679 38639 ft 524 kts 75°
2026-04-26 04:40 53.13167 -34.98243 38638 ft 524 kts 75°
2026-04-26 04:40 53.15453 -34.86721 38653 ft 524 kts 75°
2026-04-26 04:41 53.17727 -34.75196 38652 ft 523 kts 75°
2026-04-26 04:41 53.19991 -34.63645 38661 ft 524 kts 75°
2026-04-26 04:42 53.22245 -34.52081 38674 ft 524 kts 75°
2026-04-26 04:42 53.24489 -34.40500 38675 ft 524 kts 75°
2026-04-26 04:43 53.26719 -34.28918 38691 ft 524 kts 76°
2026-04-26 04:43 53.28945 -34.17285 38693 ft 527 kts 75°
2026-04-26 04:44 53.31162 -34.05630 38704 ft 526 kts 75°
2026-04-26 04:44 53.33370 -33.93953 38712 ft 526 kts 75°
2026-04-26 04:45 53.35567 -33.82259 38716 ft 526 kts 75°
2026-04-26 04:45 53.37748 -33.70571 38722 ft 526 kts 75°
2026-04-26 04:46 53.39924 -33.58850 38729 ft 527 kts 75°
2026-04-26 04:46 53.42086 -33.47121 38738 ft 527 kts 75°
2026-04-26 04:47 53.44237 -33.35382 38755 ft 526 kts 75°
2026-04-26 04:47 53.46374 -33.23639 38749 ft 526 kts 76°
2026-04-26 04:48 53.49563 -33.05979 38759 ft 528 kts 76°
2026-04-26 04:48 53.51678 -32.94174 38762 ft 528 kts 76°
2026-04-26 04:49 53.53783 -32.82344 38753 ft 528 kts 76°
2026-04-26 04:49 53.55866 -32.70567 38779 ft 523 kts 76°
2026-04-26 04:50 53.57928 -32.58826 38779 ft 524 kts 76°
2026-04-26 04:50 53.59979 -32.47067 38796 ft 524 kts 76°
2026-04-26 04:51 53.61689 -32.37210 38807 ft 524 kts 76°
2026-04-26 04:51 53.63707 -32.25501 38800 ft 523 kts 76°
2026-04-26 04:52 53.65716 -32.13773 38824 ft 520 kts 76°
2026-04-26 04:52 53.67713 -32.02032 38823 ft 521 kts 76°
2026-04-26 04:53 53.69699 -31.90279 38834 ft 521 kts 76°
2026-04-26 04:53 53.71672 -31.78525 38837 ft 521 kts 76°
2026-04-26 04:54 53.73649 -31.66659 38854 ft 526 kts 76°
2026-04-26 04:54 53.75617 -31.54772 38862 ft 525 kts 76°
2026-04-26 04:55 53.77573 -31.42875 38862 ft 525 kts 76°
2026-04-26 04:55 53.79516 -31.30975 38873 ft 525 kts 76°
2026-04-26 04:56 53.81455 -31.19012 38873 ft 529 kts 76°
2026-04-26 04:56 53.83390 -31.06998 38884 ft 529 kts 76°
2026-04-26 04:57 53.85309 -30.94988 38898 ft 529 kts 76°
2026-04-26 04:57 53.87217 -30.82964 38899 ft 528 kts 76°
2026-04-26 04:58 53.89111 -30.70938 38908 ft 530 kts 76°
2026-04-26 04:58 53.90999 -30.58868 38909 ft 530 kts 76°
2026-04-26 04:59 53.92876 -30.46780 38919 ft 530 kts 76°
2026-04-26 04:59 53.94746 -30.34689 38930 ft 530 kts 77°
2026-04-26 05:00 53.96609 -30.22587 38931 ft 532 kts 76°
2026-04-26 05:00 53.98470 -30.10419 38941 ft 532 kts 76°
2026-04-26 05:01 54.00320 -29.98237 38939 ft 532 kts 76°
2026-04-26 05:01 54.03066 -29.86564 38954 ft 533 kts 65°
2026-04-26 05:02 54.06170 -29.75100 38963 ft 534 kts 66°
2026-04-26 05:02 54.09142 -29.63486 38963 ft 535 kts 67°
2026-04-26 05:03 54.12052 -29.51822 38969 ft 535 kts 67°
2026-04-26 05:03 54.14945 -29.40128 38969 ft 535 kts 68°
2026-04-26 05:04 54.17820 -29.28422 38979 ft 536 kts 68°
2026-04-26 05:04 54.20692 -29.16658 38988 ft 537 kts 68°
2026-04-26 05:05 54.23556 -29.04863 38988 ft 537 kts 68°
2026-04-26 05:05 54.26404 -28.93070 38993 ft 537 kts 68°
2026-04-26 05:06 54.29243 -28.81252 39001 ft 537 kts 68°
2026-04-26 05:06 54.32072 -28.69410 39001 ft 537 kts 68°
2026-04-26 05:07 54.34885 -28.57567 39007 ft 537 kts 68°
2026-04-26 05:07 54.37672 -28.45774 39007 ft 537 kts 68°
2026-04-26 05:08 54.40464 -28.33890 39012 ft 537 kts 68°
2026-04-26 05:08 54.43244 -28.21997 39018 ft 537 kts 68°
2026-04-26 05:09 54.46010 -28.10092 39018 ft 537 kts 68°
2026-04-26 05:09 54.48767 -27.98163 39018 ft 537 kts 68°
2026-04-26 05:10 54.51512 -27.86214 39014 ft 536 kts 68°
2026-04-26 05:10 54.54241 -27.74273 39020 ft 536 kts 68°
2026-04-26 05:11 54.56955 -27.62327 39028 ft 536 kts 68°
2026-04-26 05:11 54.59660 -27.50356 39029 ft 536 kts 69°
2026-04-26 05:12 54.62349 -27.38383 39031 ft 536 kts 69°
2026-04-26 05:12 54.65031 -27.26375 39037 ft 536 kts 69°
2026-04-26 05:13 54.67697 -27.14371 39037 ft 536 kts 69°
2026-04-26 05:13 54.70354 -27.02336 39040 ft 536 kts 69°
2026-04-26 05:14 54.72996 -26.90303 39042 ft 535 kts 69°
2026-04-26 05:14 54.75635 -26.78210 39045 ft 537 kts 69°
2026-04-26 05:15 54.78261 -26.66107 39048 ft 537 kts 69°
2026-04-26 05:15 54.80875 -26.53986 39048 ft 537 kts 69°
2026-04-26 05:16 54.83476 -26.41854 39050 ft 537 kts 69°
2026-04-26 05:16 54.86071 -26.29682 39056 ft 538 kts 69°
2026-04-26 05:17 54.88655 -26.17485 39056 ft 538 kts 69°
2026-04-26 05:17 54.91226 -26.05276 39059 ft 538 kts 69°
2026-04-26 05:18 54.93784 -25.93056 39056 ft 538 kts 69°
2026-04-26 05:18 54.96331 -25.80811 39061 ft 539 kts 69°
2026-04-26 05:19 54.98869 -25.68536 39061 ft 539 kts 69°
2026-04-26 05:19 55.01395 -25.56246 39062 ft 539 kts 69°
2026-04-26 05:20 55.03908 -25.43945 39064 ft 538 kts 70°
2026-04-26 05:20 55.06408 -25.31627 39064 ft 539 kts 70°
2026-04-26 05:21 55.08897 -25.19289 39064 ft 539 kts 70°
2026-04-26 05:21 55.11353 -25.07035 39067 ft 539 kts 70°
2026-04-26 05:22 55.13822 -24.94644 39064 ft 539 kts 70°
2026-04-26 05:22 55.16272 -24.82265 39067 ft 539 kts 70°
2026-04-26 05:23 55.18709 -24.69877 39067 ft 538 kts 70°
2026-04-26 05:23 55.21132 -24.57477 39067 ft 539 kts 70°
2026-04-26 05:24 55.23547 -24.45042 39067 ft 539 kts 70°
2026-04-26 05:24 55.25949 -24.32590 39070 ft 539 kts 70°
2026-04-26 05:25 55.28337 -24.20136 39066 ft 539 kts 70°
2026-04-26 05:25 55.30713 -24.07658 39073 ft 539 kts 70°
2026-04-26 05:26 55.33075 -23.95174 39073 ft 539 kts 71°
2026-04-26 05:26 55.35426 -23.82665 39070 ft 539 kts 71°
2026-04-26 05:27 55.37763 -23.70152 39069 ft 539 kts 71°
2026-04-26 05:27 55.40085 -23.57628 39067 ft 539 kts 71°
2026-04-26 05:28 55.42397 -23.45079 39067 ft 539 kts 71°
2026-04-26 05:28 55.44696 -23.32517 39067 ft 539 kts 71°
2026-04-26 05:29 55.46980 -23.19949 39067 ft 539 kts 71°
2026-04-26 05:29 55.49253 -23.07357 39067 ft 539 kts 71°
2026-04-26 05:30 55.51515 -22.94745 39070 ft 539 kts 71°
2026-04-26 05:30 55.53760 -22.82136 39064 ft 539 kts 72°
2026-04-26 05:31 55.55995 -22.69497 39067 ft 539 kts 72°
2026-04-26 05:31 55.58215 -22.56850 39066 ft 539 kts 72°
2026-04-26 05:32 55.60423 -22.44186 39064 ft 539 kts 72°
2026-04-26 05:32 55.62619 -22.31504 39074 ft 540 kts 72°
2026-04-26 05:33 55.64437 -22.20936 39062 ft 540 kts 72°
2026-04-26 05:33 55.66965 -22.06136 39061 ft 540 kts 72°
2026-04-26 05:34 55.68775 -21.95463 39062 ft 540 kts 72°
2026-04-26 05:34 55.70924 -21.82703 39061 ft 540 kts 72°
2026-04-26 05:35 55.73065 -21.69905 39064 ft 541 kts 73°
2026-04-26 05:35 55.75191 -21.57095 39064 ft 541 kts 73°
2026-04-26 05:36 55.77305 -21.44269 39062 ft 541 kts 73°
2026-04-26 05:36 55.79407 -21.31415 39061 ft 541 kts 73°
2026-04-26 05:37 55.81456 -21.18799 39061 ft 543 kts 73°
2026-04-26 05:37 55.83547 -21.05821 39061 ft 542 kts 73°
2026-04-26 05:38 55.85610 -20.92918 39062 ft 542 kts 73°
2026-04-26 05:38 55.87659 -20.80010 39061 ft 542 kts 73°
2026-04-26 05:39 55.89697 -20.67067 39062 ft 543 kts 74°
2026-04-26 05:39 55.91725 -20.54096 39061 ft 543 kts 74°
2026-04-26 05:40 55.93739 -20.41122 39059 ft 543 kts 74°
2026-04-26 05:40 55.95748 -20.28134 39059 ft 543 kts 74°
2026-04-26 05:41 55.97750 -20.15113 39058 ft 544 kts 74°
2026-04-26 05:41 55.99340 -20.01905 39056 ft 544 kts 81°
2026-04-26 05:42 56.00190 -19.88486 39056 ft 544 kts 88°
2026-04-26 05:42 56.00428 -19.74983 39058 ft 544 kts 88°
2026-04-26 05:43 56.00709 -19.61560 39059 ft 545 kts 89°
2026-04-26 05:43 56.00949 -19.48031 39059 ft 545 kts 89°
2026-04-26 05:44 56.01161 -19.34410 39059 ft 545 kts 89°
2026-04-26 05:44 56.01355 -19.20869 39059 ft 545 kts 89°
2026-04-26 05:45 56.01535 -19.07330 39061 ft 545 kts 89°
2026-04-26 05:45 56.01699 -18.93791 39064 ft 545 kts 90°
2026-04-26 05:46 56.01849 -18.80257 39067 ft 545 kts 90°
2026-04-26 05:46 56.01984 -18.66806 39067 ft 545 kts 90°
2026-04-26 05:47 56.02104 -18.53264 39067 ft 545 kts 90°
2026-04-26 05:47 56.02210 -18.39726 39067 ft 545 kts 90°
2026-04-26 05:48 56.02301 -18.26188 39070 ft 545 kts 90°
2026-04-26 05:48 56.02377 -18.12639 39070 ft 545 kts 90°
2026-04-26 05:49 56.02463 -17.92339 39072 ft 544 kts 91°
2026-04-26 05:50 56.02502 -17.78809 39073 ft 544 kts 91°
2026-04-26 05:50 56.02526 -17.65273 39075 ft 544 kts 91°
2026-04-26 05:51 56.02535 -17.51748 39072 ft 544 kts 91°
2026-04-26 05:51 56.02530 -17.38213 39080 ft 544 kts 91°
2026-04-26 05:52 56.02510 -17.24687 39073 ft 544 kts 91°
2026-04-26 05:52 56.02474 -17.11158 39078 ft 544 kts 91°
2026-04-26 05:53 56.02425 -16.97718 39080 ft 544 kts 91°
2026-04-26 05:53 56.02360 -16.84204 39081 ft 544 kts 92°
2026-04-26 05:54 56.02281 -16.70675 39088 ft 544 kts 92°
2026-04-26 05:54 56.02187 -16.57153 39089 ft 544 kts 92°
2026-04-26 05:55 56.02078 -16.43638 39094 ft 544 kts 92°
2026-04-26 05:55 56.01954 -16.30130 39094 ft 543 kts 92°
2026-04-26 05:56 56.01816 -16.16650 39092 ft 542 kts 92°
2026-04-26 05:56 56.01664 -16.03187 39096 ft 541 kts 93°
2026-04-26 05:57 56.01496 -15.89737 39105 ft 541 kts 93°
2026-04-26 05:57 56.01315 -15.76286 39108 ft 541 kts 93°
2026-04-26 05:58 56.01118 -15.62844 39105 ft 541 kts 93°
2026-04-26 05:58 56.00907 -15.49397 39110 ft 541 kts 93°
2026-04-26 05:59 56.00682 -15.35957 39113 ft 540 kts 94°
2026-04-26 05:59 56.00442 -15.22538 39116 ft 540 kts 94°
2026-04-26 06:00 56.00192 -15.09122 39119 ft 540 kts 94°
2026-04-26 06:00 55.99955 -14.95694 39121 ft 541 kts 92°
2026-04-26 06:01 56.00010 -14.82261 39125 ft 539 kts 91°
2026-04-26 06:01 56.00084 -14.68912 39124 ft 538 kts 91°
2026-04-26 06:02 56.00107 -14.55540 39127 ft 538 kts 91°
2026-04-26 06:02 56.00106 -14.42162 39130 ft 538 kts 92°
2026-04-26 06:03 56.00090 -14.28813 39125 ft 536 kts 92°
2026-04-26 06:03 56.00060 -14.15535 39138 ft 535 kts 92°
2026-04-26 06:04 55.99705 -14.02289 39137 ft 532 kts 100°
2026-04-26 06:04 55.98192 -13.89410 39143 ft 528 kts 110°
2026-04-26 06:05 55.96013 -13.76894 39146 ft 528 kts 110°
2026-04-26 06:05 55.93859 -13.64363 39151 ft 528 kts 110°
2026-04-26 06:06 55.91683 -13.51849 39152 ft 528 kts 110°
2026-04-26 06:06 55.89503 -13.39438 39159 ft 528 kts 110°
2026-04-26 06:07 55.87281 -13.26882 39159 ft 528 kts 110°
2026-04-26 06:07 55.85074 -13.14494 39172 ft 529 kts 110°
2026-04-26 06:08 55.82841 -13.02040 39174 ft 528 kts 111°
2026-04-26 06:08 55.80598 -12.89620 39172 ft 528 kts 111°
2026-04-26 06:09 55.78346 -12.77229 39172 ft 527 kts 111°
2026-04-26 06:09 55.76079 -12.64840 39178 ft 527 kts 111°
2026-04-26 06:10 55.73799 -12.52464 39177 ft 527 kts 111°
2026-04-26 06:10 55.71509 -12.40116 39176 ft 527 kts 111°
2026-04-26 06:11 55.69207 -12.27782 39185 ft 526 kts 111°
2026-04-26 06:11 55.66899 -12.15499 39191 ft 525 kts 111°
2026-04-26 06:12 55.64579 -12.03231 39191 ft 525 kts 112°
2026-04-26 06:12 55.62246 -11.90973 39192 ft 525 kts 112°
2026-04-26 06:13 55.59901 -11.78728 39192 ft 525 kts 112°
2026-04-26 06:13 55.57545 -11.66504 39195 ft 525 kts 112°
2026-04-26 06:14 55.55176 -11.54294 39196 ft 525 kts 112°
2026-04-26 06:14 55.52794 -11.42096 39198 ft 525 kts 112°
2026-04-26 06:15 55.50401 -11.29914 39197 ft 525 kts 112°
2026-04-26 06:15 55.47998 -11.17759 39194 ft 525 kts 112°
2026-04-26 06:16 55.45586 -11.05631 39207 ft 524 kts 112°
2026-04-26 06:16 55.43177 -10.93594 39206 ft 524 kts 112°
2026-04-26 06:17 55.40742 -10.81503 39209 ft 524 kts 113°
2026-04-26 06:17 55.38293 -10.69416 39209 ft 524 kts 113°
2026-04-26 06:18 55.35834 -10.57355 39212 ft 524 kts 113°
2026-04-26 06:18 55.33365 -10.45313 39192 ft 523 kts 113°
2026-04-26 06:19 55.30890 -10.33319 39215 ft 522 kts 113°
2026-04-26 06:19 55.28808 -10.23284 39215 ft 522 kts 113°
2026-04-26 06:20 55.26315 -10.11328 39221 ft 522 kts 113°
2026-04-26 06:20 55.23800 -9.99383 39220 ft 522 kts 114°
2026-04-26 06:21 55.21164 -9.87632 39213 ft 522 kts 114°
2026-04-26 06:21 55.18581 -9.75756 39210 ft 521 kts 114°
2026-04-26 06:22 55.15977 -9.63906 39220 ft 522 kts 114°
2026-04-26 06:22 55.13349 -9.52094 39224 ft 521 kts 114°
2026-04-26 06:23 55.10708 -9.40312 39224 ft 521 kts 114°
2026-04-26 06:23 55.08058 -9.28559 39224 ft 520 kts 114°
2026-04-26 06:24 55.05396 -9.16818 39230 ft 520 kts 114°
2026-04-26 06:24 55.02724 -9.05099 39230 ft 520 kts 115°
2026-04-26 06:25 55.00042 -8.93402 39230 ft 520 kts 115°
2026-04-26 06:25 54.97346 -8.81703 39230 ft 520 kts 115°
2026-04-26 06:26 54.94644 -8.70049 39219 ft 519 kts 115°
2026-04-26 06:26 54.91931 -8.58404 39233 ft 519 kts 115°
2026-04-26 06:27 54.89208 -8.46787 39238 ft 519 kts 115°
2026-04-26 06:27 54.86473 -8.35177 39239 ft 519 kts 115°
2026-04-26 06:28 54.83728 -8.23587 39233 ft 519 kts 115°
2026-04-26 06:28 54.80969 -8.12001 39237 ft 520 kts 115°
2026-04-26 06:29 54.78197 -8.00423 39230 ft 520 kts 115°
2026-04-26 06:29 54.75415 -7.88866 39237 ft 520 kts 115°
2026-04-26 06:30 54.72625 -7.77336 39230 ft 519 kts 115°
2026-04-26 06:30 54.69822 -7.65815 39230 ft 519 kts 116°
2026-04-26 06:31 54.67012 -7.54326 39226 ft 519 kts 116°
2026-04-26 06:31 54.64187 -7.42835 39230 ft 520 kts 116°
2026-04-26 06:32 54.61352 -7.31365 39236 ft 520 kts 116°
2026-04-26 06:32 54.58508 -7.19913 39232 ft 519 kts 116°
2026-04-26 06:33 54.55653 -7.08479 39239 ft 520 kts 116°
2026-04-26 06:33 54.52786 -6.97057 39227 ft 518 kts 116°
2026-04-26 06:34 54.49913 -6.85673 39234 ft 519 kts 116°
2026-04-26 06:34 54.47023 -6.74278 39235 ft 519 kts 116°
2026-04-26 06:35 54.44126 -6.62909 39236 ft 519 kts 116°
2026-04-26 06:35 54.41219 -6.51562 39235 ft 519 kts 116°
2026-04-26 06:36 54.38304 -6.40242 39230 ft 519 kts 116°
2026-04-26 06:36 54.35376 -6.28928 39238 ft 519 kts 116°
2026-04-26 06:37 54.32442 -6.17648 39241 ft 518 kts 116°
2026-04-26 06:37 54.29497 -6.06382 39239 ft 518 kts 116°
2026-04-26 06:38 54.26543 -5.95142 39246 ft 518 kts 116°
2026-04-26 06:38 54.23578 -5.83909 39245 ft 518 kts 116°
2026-04-26 06:39 54.20601 -5.72690 39245 ft 518 kts 117°
2026-04-26 06:39 54.17614 -5.61487 39245 ft 518 kts 117°
2026-04-26 06:40 54.14619 -5.50309 39242 ft 518 kts 117°
2026-04-26 06:40 54.11610 -5.39136 39231 ft 517 kts 117°
2026-04-26 06:41 54.08598 -5.28003 39238 ft 517 kts 117°
2026-04-26 06:41 54.05574 -5.16883 39241 ft 517 kts 117°
2026-04-26 06:42 54.02541 -5.05780 39241 ft 517 kts 117°
2026-04-26 06:42 53.99518 -4.94766 39240 ft 517 kts 118°
2026-04-26 06:43 53.95981 -4.84101 39241 ft 514 kts 126°
2026-04-26 06:43 53.91782 -4.74282 39233 ft 513 kts 129°
2026-04-26 06:44 53.87569 -4.64626 39250 ft 513 kts 129°
2026-04-26 06:44 53.83327 -4.54908 39247 ft 513 kts 129°
2026-04-26 06:45 53.79075 -4.45220 39242 ft 513 kts 129°
2026-04-26 06:45 53.74813 -4.35547 39243 ft 513 kts 129°
2026-04-26 06:46 53.70544 -4.25894 39242 ft 513 kts 129°
2026-04-26 06:46 53.66271 -4.16270 39231 ft 513 kts 129°
2026-04-26 06:47 53.61969 -4.06621 39245 ft 515 kts 129°
2026-04-26 06:47 53.57667 -3.97007 39237 ft 514 kts 129°
2026-04-26 06:48 53.53349 -3.87392 39241 ft 515 kts 129°
2026-04-26 06:48 53.49030 -3.77813 39251 ft 514 kts 129°
2026-04-26 06:49 53.44700 -3.68249 39242 ft 516 kts 129°
2026-04-26 06:49 53.40296 -3.58800 39255 ft 514 kts 134°
2026-04-26 06:50 53.35556 -3.49797 39248 ft 515 kts 134°
2026-04-26 06:50 53.30826 -3.40800 39253 ft 514 kts 134°
2026-04-26 06:51 53.26093 -3.31824 39255 ft 515 kts 134°
2026-04-26 06:51 53.18999 -3.18435 39271 ft 515 kts 134°
2026-04-26 06:52 53.14218 -3.09452 39272 ft 515 kts 134°
2026-04-26 06:52 53.09454 -3.00536 39284 ft 517 kts 134°
2026-04-26 06:53 53.04667 -2.91607 39287 ft 516 kts 134°
2026-04-26 06:53 52.99882 -2.82714 39289 ft 516 kts 134°
2026-04-26 06:54 52.95124 -2.73903 39311 ft 516 kts 134°
2026-04-26 06:54 52.90322 -2.65041 39315 ft 516 kts 134°
2026-04-26 06:55 52.85515 -2.56204 39323 ft 516 kts 134°
2026-04-26 06:55 52.80699 -2.47381 39317 ft 518 kts 134°
2026-04-26 06:56 52.75863 -2.38555 39310 ft 518 kts 134°
2026-04-26 06:56 52.71026 -2.29756 39299 ft 517 kts 134°
2026-04-26 06:57 52.66189 -2.20989 39299 ft 517 kts 134°
2026-04-26 06:57 52.61342 -2.12235 39303 ft 517 kts 134°
2026-04-26 06:58 52.56492 -2.03505 39306 ft 517 kts 134°
2026-04-26 06:58 52.51627 -1.94782 39308 ft 519 kts 134°
2026-04-26 06:59 52.46739 -1.86048 39319 ft 519 kts 134°
2026-04-26 06:59 52.41858 -1.77356 39319 ft 519 kts 134°
2026-04-26 07:00 52.36961 -1.68666 39319 ft 519 kts 134°
2026-04-26 07:00 52.32026 -1.60058 39316 ft 519 kts 135°
2026-04-26 07:01 52.27025 -1.51570 39326 ft 518 kts 135°
2026-04-26 07:01 52.22026 -1.43089 39345 ft 520 kts 135°
2026-04-26 07:02 52.17014 -1.34590 39347 ft 520 kts 135°
2026-04-26 07:02 52.12845 -1.27541 39346 ft 520 kts 135°
2026-04-26 07:03 52.07822 -1.19075 39340 ft 520 kts 135°
2026-04-26 07:03 52.02791 -1.10626 39309 ft 520 kts 135°
2026-04-26 07:04 51.97636 -1.02408 39313 ft 519 kts 140°
2026-04-26 07:04 51.92232 -0.94641 39318 ft 521 kts 140°
2026-04-26 07:05 51.86824 -0.86858 39318 ft 521 kts 140°
2026-04-26 07:05 51.81406 -0.79077 39316 ft 521 kts 140°
2026-04-26 07:06 51.75989 -0.71322 39319 ft 520 kts 140°
2026-04-26 07:06 51.70670 -0.63406 39317 ft 521 kts 131°
2026-04-26 07:07 51.68536 -0.58686 39332 ft 523 kts 120°
2026-04-26 07:07 51.67080 -0.53846 39331 ft 523 kts 110°
2026-04-26 07:07 51.65169 -0.42619 39326 ft 523 kts 103°
2026-04-26 07:08 51.63375 -0.31191 39343 ft 523 kts 104°
2026-04-26 07:08 51.61506 -0.19883 39343 ft 523 kts 105°
2026-04-26 07:09 51.59598 -0.08581 39333 ft 523 kts 105°
2026-04-26 07:09 51.57756 0.02238 39343 ft 523 kts 105°
2026-04-26 07:11 51.52943 0.30227 39334 ft 523 kts 105°
2026-04-26 07:11 51.50999 0.41407 39332 ft 523 kts 105°
2026-04-26 07:12 51.49030 0.52655 39340 ft 524 kts 105°
2026-04-26 07:12 51.47051 0.63897 39345 ft 524 kts 105°
2026-04-26 07:13 51.45060 0.75134 39341 ft 524 kts 105°
2026-04-26 07:13 51.43059 0.86353 39338 ft 524 kts 105°
2026-04-26 07:14 51.41045 0.97574 39335 ft 523 kts 105°
2026-04-26 07:14 51.39029 1.08740 39326 ft 522 kts 105°
2026-04-26 07:15 51.37001 1.19909 39324 ft 523 kts 105°
2026-04-26 07:15 51.34961 1.31071 39327 ft 522 kts 105°
2026-04-26 07:16 51.32911 1.42216 39325 ft 522 kts 105°
2026-04-26 07:16 51.30854 1.53336 39319 ft 521 kts 105°
2026-04-26 07:17 51.28790 1.64426 39315 ft 521 kts 105°
2026-04-26 07:17 51.26712 1.75528 39319 ft 521 kts 106°
2026-04-26 07:18 51.24626 1.86600 39320 ft 521 kts 106°
2026-04-26 07:18 51.22530 1.97666 39328 ft 519 kts 106°
2026-04-26 07:19 51.20434 2.08667 39332 ft 519 kts 106°
2026-04-26 07:19 51.18322 2.19683 39327 ft 519 kts 107°
2026-04-26 07:20 51.16201 2.30686 39318 ft 519 kts 107°
2026-04-26 07:20 51.14071 2.41670 39319 ft 518 kts 107°
2026-04-26 07:21 51.11935 2.52624 39317 ft 518 kts 107°
2026-04-26 07:21 51.09414 2.63349 39320 ft 518 kts 115°
2026-04-26 07:22 51.05789 2.73220 39328 ft 517 kts 128°
2026-04-26 07:22 51.01430 2.82212 39321 ft 517 kts 128°
2026-04-26 07:23 50.97059 2.91266 39319 ft 516 kts 128°
2026-04-26 07:23 50.92686 3.00296 39317 ft 516 kts 128°
2026-04-26 07:24 50.87760 3.08504 39311 ft 515 kts 138°
2026-04-26 07:24 50.82518 3.16244 39309 ft 515 kts 138°
2026-04-26 07:25 50.77300 3.23988 39314 ft 515 kts 137°
2026-04-26 07:25 50.72083 3.31731 39309 ft 514 kts 138°
2026-04-26 07:26 50.66863 3.39449 39314 ft 514 kts 138°
2026-04-26 07:26 50.61638 3.47142 39311 ft 514 kts 138°
2026-04-26 07:27 50.56401 3.54825 39309 ft 514 kts 138°
2026-04-26 07:27 50.51163 3.62487 39303 ft 514 kts 138°
2026-04-26 07:28 50.45921 3.70130 39300 ft 514 kts 138°
2026-04-26 07:28 50.40680 3.77747 39296 ft 513 kts 138°
2026-04-26 07:29 50.35442 3.85335 39281 ft 513 kts 138°
2026-04-26 07:29 50.30195 3.92914 39288 ft 513 kts 138°
2026-04-26 07:30 50.24947 4.00469 39285 ft 513 kts 138°
2026-04-26 07:30 50.19686 4.08020 39285 ft 513 kts 139°
2026-04-26 07:31 50.14418 4.15556 39281 ft 513 kts 139°
2026-04-26 07:31 50.09153 4.23065 39279 ft 513 kts 139°
2026-04-26 07:32 50.03881 4.30561 39271 ft 513 kts 139°
2026-04-26 07:32 49.98608 4.38036 39276 ft 513 kts 139°
2026-04-26 07:33 49.93351 4.45463 39267 ft 513 kts 139°
2026-04-26 07:33 49.88030 4.52960 39268 ft 513 kts 139°
2026-04-26 07:34 49.82778 4.60335 39270 ft 513 kts 139°
2026-04-26 07:34 49.77486 4.67743 39265 ft 513 kts 139°
2026-04-26 07:35 49.72189 4.75136 39266 ft 513 kts 139°
2026-04-26 07:35 49.66880 4.82522 39261 ft 513 kts 139°
2026-04-26 07:36 49.61573 4.89884 39268 ft 514 kts 139°
2026-04-26 07:36 49.56263 4.97227 39269 ft 513 kts 139°
2026-04-26 07:37 49.50945 5.04559 39267 ft 513 kts 139°
2026-04-26 07:37 49.45626 5.11870 39268 ft 513 kts 139°
2026-04-26 07:38 49.40306 5.19161 39258 ft 513 kts 139°
2026-04-26 07:38 49.34975 5.26444 39240 ft 513 kts 139°
2026-04-26 07:39 49.29646 5.33702 39258 ft 513 kts 140°
2026-04-26 07:39 49.24324 5.40931 39251 ft 511 kts 140°
2026-04-26 07:40 49.19003 5.48134 39255 ft 511 kts 140°
2026-04-26 07:40 49.13669 5.55334 39254 ft 511 kts 140°
2026-04-26 07:41 49.08335 5.62512 39259 ft 511 kts 140°
2026-04-26 07:41 49.02995 5.69679 39253 ft 511 kts 140°
2026-04-26 07:42 48.97657 5.76820 39255 ft 511 kts 140°
2026-04-26 07:42 48.92309 5.83953 39246 ft 511 kts 140°
2026-04-26 07:43 48.86957 5.91071 39258 ft 511 kts 140°
2026-04-26 07:43 48.81602 5.98172 39261 ft 511 kts 140°
2026-04-26 07:44 48.76238 6.05265 39262 ft 511 kts 140°
2026-04-26 07:44 48.70876 6.12333 39265 ft 511 kts 140°
2026-04-26 07:45 48.65512 6.19383 39265 ft 511 kts 140°
2026-04-26 07:45 48.60141 6.26421 39265 ft 511 kts 140°
2026-04-26 07:46 48.54805 6.33393 39258 ft 511 kts 140°
2026-04-26 07:46 48.49426 6.40401 39240 ft 511 kts 140°
2026-04-26 07:47 48.44054 6.47381 39235 ft 510 kts 141°
2026-04-26 07:47 48.38673 6.54351 39242 ft 510 kts 141°
2026-04-26 07:48 48.33297 6.61295 39182 ft 507 kts 141°
2026-04-26 07:48 48.31531 6.63573 39043 ft 501 kts 141°
2026-04-26 07:48 48.28907 6.66954 38798 ft 495 kts 141°
2026-04-26 07:48 48.26296 6.70311 38503 ft 494 kts 141°
2026-04-26 07:49 48.23641 6.73719 38198 ft 496 kts 141°
2026-04-26 07:49 48.21061 6.77027 37933 ft 495 kts 141°
2026-04-26 07:49 48.18442 6.80379 37653 ft 495 kts 141°
2026-04-26 07:50 48.13190 6.87091 36698 ft 496 kts 141°
2026-04-26 07:50 48.10566 6.90435 35798 ft 497 kts 141°
2026-04-26 07:50 48.07921 6.93801 34806 ft 500 kts 141°
2026-04-26 07:50 48.05270 6.97171 33755 ft 501 kts 142°
2026-04-26 07:51 48.02614 7.00544 32523 ft 503 kts 142°
2026-04-26 07:51 47.99929 7.03949 31194 ft 508 kts 142°
2026-04-26 07:51 47.97240 7.07354 30231 ft 505 kts 142°
2026-04-26 07:51 47.94580 7.10720 29452 ft 497 kts 142°
2026-04-26 07:52 47.91976 7.14012 28956 ft 486 kts 142°
2026-04-26 07:52 47.89406 7.17253 28128 ft 481 kts 142°
2026-04-26 07:52 47.86868 7.20449 27359 ft 476 kts 142°
2026-04-26 07:52 47.84349 7.23615 26575 ft 471 kts 142°
2026-04-26 07:53 47.81867 7.26731 25810 ft 466 kts 142°
2026-04-26 07:53 47.79400 7.29826 25041 ft 462 kts 142°
2026-04-26 07:53 47.76951 7.32894 24277 ft 458 kts 141°
2026-04-26 07:53 47.74523 7.35934 23431 ft 455 kts 141°
2026-04-26 07:54 47.72116 7.38945 22668 ft 449 kts 141°
2026-04-26 07:54 47.69743 7.41909 21906 ft 443 kts 141°
2026-04-26 07:54 47.67394 7.44843 21161 ft 438 kts 141°
2026-04-26 07:54 47.65148 7.47840 20395 ft 434 kts 134°
2026-04-26 07:55 47.63321 7.51379 19640 ft 431 kts 122°
2026-04-26 07:55 47.61997 7.55341 18870 ft 428 kts 110°
2026-04-26 07:55 47.61041 7.59493 18042 ft 424 kts 108°
2026-04-26 07:55 47.60095 7.63606 17283 ft 419 kts 108°
2026-04-26 07:56 47.59147 7.67658 16538 ft 414 kts 109°
2026-04-26 07:56 47.58201 7.71675 15779 ft 410 kts 109°
2026-04-26 07:56 47.57267 7.75634 15023 ft 406 kts 109°
2026-04-26 07:56 47.56340 7.79565 14275 ft 402 kts 109°
2026-04-26 07:57 47.55421 7.83459 13453 ft 398 kts 109°
2026-04-26 07:57 47.54510 7.87317 12454 ft 399 kts 109°
2026-04-26 07:57 47.53598 7.91164 12003 ft 386 kts 108°
2026-04-26 07:57 47.52730 7.94813 11789 ft 368 kts 108°
2026-04-26 07:58 47.51901 7.98304 11613 ft 351 kts 108°
2026-04-26 07:58 47.51110 8.01633 11476 ft 335 kts 108°
2026-04-26 07:58 47.50349 8.04820 11333 ft 322 kts 108°
2026-04-26 07:58 47.49619 8.07882 11216 ft 309 kts 107°
2026-04-26 07:59 47.48921 8.10817 11117 ft 297 kts 108°
2026-04-26 07:59 47.48254 8.13628 10848 ft 292 kts 108°
2026-04-26 07:59 47.47572 8.16488 10470 ft 290 kts 107°
2026-04-26 07:59 47.47189 8.19373 10105 ft 284 kts 85°
2026-04-26 08:00 47.47665 8.22144 9722 ft 277 kts 60°
2026-04-26 08:00 47.48664 8.24557 9283 ft 275 kts 48°
2026-04-26 08:00 47.50176 8.26198 8956 ft 270 kts 21°
2026-04-26 08:00 47.52005 8.26623 8619 ft 266 kts 354°
2026-04-26 08:01 47.53730 8.25795 8380 ft 263 kts 329°
2026-04-26 08:01 47.55118 8.24036 8085 ft 260 kts 317°
2026-04-26 08:01 47.56417 8.22204 7815 ft 257 kts 318°
2026-04-26 08:01 47.57720 8.20407 7549 ft 255 kts 319°
2026-04-26 08:02 47.59009 8.18629 7295 ft 252 kts 319°
2026-04-26 08:02 47.60393 8.17077 7027 ft 249 kts 337°
2026-04-26 08:02 47.62086 8.16606 6568 ft 252 kts
2026-04-26 08:02 47.63740 8.17450 6117 ft 256 kts 37°
2026-04-26 08:03 47.64980 8.19299 5999 ft 254 kts 49°
2026-04-26 08:03 47.66155 8.21221 5986 ft 246 kts 48°
2026-04-26 08:03 47.67197 8.23136 5970 ft 231 kts 64°
2026-04-26 08:03 47.67529 8.25350 5898 ft 221 kts 94°
2026-04-26 08:04 47.67089 8.27476 5819 ft 214 kts 121°
2026-04-26 08:04 47.66100 8.29064 5723 ft 208 kts 136°
2026-04-26 08:04 47.65022 8.30504 5565 ft 203 kts 134°
2026-04-26 08:04 47.64008 8.31908 5414 ft 202 kts 134°
2026-04-26 08:05 47.62968 8.33356 5192 ft 202 kts 134°
2026-04-26 08:05 47.61954 8.34769 5039 ft 199 kts 135°
2026-04-26 08:05 47.60941 8.36170 4881 ft 199 kts 135°
2026-04-26 08:05 47.59926 8.37557 4669 ft 198 kts 135°
2026-04-26 08:06 47.58914 8.38941 4410 ft 198 kts 135°
2026-04-26 08:06 47.57916 8.40303 4206 ft 195 kts 135°
2026-04-26 08:06 47.56957 8.41624 3983 ft 179 kts 134°
2026-04-26 08:06 47.56024 8.42925 3667 ft 189 kts 134°
2026-04-26 08:07 47.55073 8.44235 3332 ft 190 kts 134°
2026-04-26 08:07 47.54078 8.45585 2936 ft 191 kts 134°
2026-04-26 08:07 47.53105 8.46894 2768 ft 192 kts 134°
2026-04-26 08:07 47.52139 8.48189 2470 ft 177 kts 134°
2026-04-26 08:08 47.51302 8.49345 2164 ft 154 kts 134°
2026-04-26 08:08 47.50550 8.50398 2012 ft 145 kts 134°
2026-04-26 08:08 47.49812 8.51413 1857 ft 146 kts 135°
2026-04-26 08:08 47.49062 8.52437 1700 ft 145 kts 134°
2026-04-26 08:09 47.48333 8.53440 1463 ft 142 kts 135°
2026-04-26 08:09 47.47657 8.54369 1408 ft 113 kts 137°
2026-04-26 08:09 47.47165 8.55015 1403 ft 79 kts 138°
2026-04-26 08:09 47.46832 8.55474 1403 ft 50 kts 136°
2026-04-26 08:10 47.46608 8.55788 1409 ft 40 kts 140°
2026-04-26 08:10 47.46398 8.55950 1412 ft 25 kts 166°
2026-04-26 08:10 47.46275 8.55979 1412 ft 12 kts 199°
2026-04-26 08:10 47.46232 8.55892 1411 ft 11 kts 265°
2026-04-26 08:11 47.46240 8.55748 1412 ft 17 kts 276°
2026-04-26 08:11 47.46252 8.55560 1412 ft 21 kts 276°
2026-04-26 08:11 47.46283 8.55335 1408 ft 22 kts 288°
2026-04-26 08:11 47.46297 8.55222 1405 ft 8 kts 270°
2026-04-26 08:12 47.46297 8.55196 1405 ft 3 kts 266°
2026-04-26 08:12 47.46286 8.55115 1407 ft 11 kts 250°
2026-04-26 08:12 47.46273 8.55072 1405 ft 2 kts 218°
2026-04-26 08:12 47.46258 8.55064 1407 ft 4 kts 179°
2026-04-26 08:13 47.46233 8.55074 1408 ft 5 kts 155°
2026-04-26 08:13 47.46208 8.55092 1405 ft 3 kts 155°
2026-04-26 08:13 47.46202 8.55096 1403 ft 0 kts 155°